Regional Weather Roundup
Issued by NWS

Home | Current Version | Previous Version | Graphics & Text | Print | Product List | Glossary Off
Versions: 1 2 3 4 5 6 7 8 9 10 11 12 13 14 15 16 17 18 19 20 21 22 23 24 25 26 27 28 29 30 31 32 33 34 35 36 37 38 39 40 41 42 43 44 45 46 47 48 49 50

000
ASUS43 KLSX 310907
RWRMO

WEATHER SUMMARY FOR MISSOURI
NATIONAL WEATHER SERVICE SPRINGFIELD MO
300 AM CST SAT JAN 31 2015

NOTE: "FAIR" INDICATES FEW OR NO CLOUDS BELOW 12,000 FEET WITH NO
       SIGNIFICANT WEATHER AND/OR OBSTRUCTIONS TO VISIBILITY.
       CURRENT SKY AND/OR WEATHER CONDITIONS ARE NOT AVAILABLE FOR
       CHILLICOTHE AND FARMINGTON.

MOZ001>031-035>038-043-044-053-054-311000-
...NORTHERN AND WESTERN MISSOURI...

CITY           SKY/WX    TMP DP  RH WIND       PRES   REMARKS
KANSAS CTY INT LGT RAIN  35  26  69 SW6       30.28F
KANSAS C DTWN  CLOUDY    39  24  55 SW7       30.30F
LEE`S SUMMIT   CLOUDY    36  20  52 SW7       30.30F
ST JOSEPH      CLOUDY    35  25  66 SW5       30.30S
CHILLICOTHE      N/A     30  20  66 S5        30.30F WCI  25
KIRKSVILLE     CLOUDY    28  21  75 S7        30.29F WCI  21

$$
MOZ066>068-077>081-088>096-101>105-311000-
...SOUTHWEST MISSOURI...

CITY           SKY/WX    TMP DP  RH WIND       PRES   REMARKS
SPRINGFIELD    CLOUDY    39  20  46 SE8       30.29F
JOPLIN         LGT RAIN  40  28  62 CALM      30.30F

$$
MOZ032>034-039>042-045>050-055>058-069>072-311000-
...CENTRAL MISSOURI...

CITY           SKY/WX    TMP DP  RH WIND       PRES   REMARKS
COLUMBIA       CLOUDY    31  21  66 S6        30.32F WCI  25
JEFFERSON CITY CLOUDY    30  21  69 SE5       30.33F WCI  25
ROLLA          CLOUDY    35  18  49 S7        30.29F WCI  29
SEDALIA        CLOUDY    35  21  56 S5        30.31F
WHITEMAN AFB   CLOUDY    32  23  69 S5        30.29F WCI  27
WARRENSBURG    CLOUDY    34  21  60 S5        30.30F WCI  30
OSAGE BEACH    CLOUDY    36  19  51 CALM      30.32F

$$
MOZ051-052-059>065-311000-
...EAST CENTRAL MISSOURI...

CITY           SKY/WX    TMP DP  RH WIND       PRES   REMARKS
ST LOUIS INTL  MOCLDY    32  19  58 S5        30.35F WCI  27
SPIRIT OF STL  CLOUDY    26  22  84 CALM      30.34F
ST CHARLES     MOCLDY    26  22  84 NE5       30.36F WCI  20

$$
MOZ072>076-082>087-097>100-106>115-311000-
...SOUTH CENTRAL AND SOUTHEAST MISSOURI...

CITY           SKY/WX    TMP DP  RH WIND       PRES   REMARKS
CAPE GIRARDEAU MOCLDY    30  24  78 CALM      30.40S
FARMINGTON     CLOUDY    30  19  64 S6        30.37F WCI  24
POPLAR BLUFF   CLOUDY    29  24  82 CALM      30.39S
WEST PLAINS    CLOUDY    34  24  67 S3        30.35F

$$


USA.gov is the U.S. government's official web portal to all federal, state and local government web resources and services.